This demonstration page uses our WeatherBlox Daily Observations layout. Learn more.

Left ArrowRight Arrow

34.74481, -87.66753

Hourly Observations for August 3, 2015

Temp ( °F °C ) Dew Point ( °F °C ) Humidity (%) Winds ( mph kmh ) Pressure ( in mb ) Visibility ( mi km ) Precip ( " mm )
12:53 am 00:53 Clear 67 19.4 62 16.7 84 84 Calm 29.92 1013 10 16 0.00 0.00
1:53 am 01:53 Clear 65 18.3 61 16.1 87 87 Calm 29.91 1013 10 16 0.00 0.00
2:53 am 02:53 Clear 64 17.8 60 15.6 87 87 Calm 29.90 1013 10 16 0.00 0.00
3:53 am 03:53 Clear 64 17.8 60 15.6 87 87 Calm 29.91 1013 10 16 0.00 0.00
4:53 am 04:53 Clear 64 17.8 61 16.1 90 90 Calm 29.91 1013 10 16 0.00 0.00
5:53 am 05:53 Clear 63 17.2 60 15.6 90 90 Calm 29.92 1013 10 16 0.00 0.00
6:53 am 06:53 Sunny 66 18.9 63 17.2 90 90 Calm 29.93 1014 10 16 0.00 0.00
7:53 am 07:53 Sunny 72 22.2 66 18.9 82 82 Calm 29.95 1014 10 16 0.00 0.00
8:53 am 08:53 Sunny 77 25 65 18.3 66 66 Calm 29.96 1015 10 16 0.00 0.00
9:53 am 09:53 Sunny 84 28.9 65 18.3 53 53 Calm 29.96 1015 10 16 0.00 0.00
10:53 am 10:53 Sunny 88 31.1 65 18.3 46 46 SW 3 6 29.96 1015 10 16 0.00 0.00
11:53 am 11:53 Sunny 91 32.8 66 18.9 44 44 NW 6 9 29.95 1014 10 16 0.00 0.00
12:53 pm 12:53 Mostly Sunny 91 32.8 66 18.9 44 44 VRB 5 7 29.94 1014 10 16 0.00 0.00
1:53 pm 13:53 Mostly Sunny 93 33.9 66 18.9 41 41 WSW 5 7 29.93 1014 10 16 0.00 0.00
2:53 pm 14:53 Mostly Sunny 91 32.8 70 21.1 50 50 NW 9 15 29.93 1014 10 16 0.00 0.00
3:53 pm 15:53 Sunny 95 35 63 17.2 35 35 WNW 7 11 29.91 1013 10 16 0.00 0.00
4:53 pm 16:53 Sunny 93 33.9 67 19.4 42 42 N 5 7 29.91 1013 10 16 0.00 0.00
5:53 pm 17:53 Sunny 92 33.3 68 20 46 46 Calm 29.91 1013 10 16 0.00 0.00
6:53 pm 18:53 Sunny 89 31.7 73 22.8 59 59 Calm 29.91 1013 10 16 0.00 0.00
7:53 pm 19:53 Mostly Clear 84 28.9 71 21.7 65 65 Calm 29.91 1013 10 16 0.00 0.00
8:53 pm 20:53 Clear 79 26.1 71 21.7 77 77 Calm 29.93 1013 10 16 0.00 0.00
9:53 pm 21:53 Clear 79 26.1 71 21.7 77 77 Calm 29.94 1014 10 16 0.00 0.00
10:53 pm 22:53 Clear 76 24.4 71 21.7 85 85 Calm 29.94 1014 10 16 0.00 0.00
11:53 pm 23:53 Clear 76 24.4 72 22.2 88 88 Calm 29.94 1014 10 16 0.00 0.00

Powered by AerisWeather